Vertical_Velocity
0 0 2 -2 3 6 1 -1 -0 -0 -2 -0 -1 1 -2 -3 -1 -2 -0 2 -2 -0 -1 -0 1 -2 -1 -1 0 -1 2 1 -0 -1 1 1 1 1 2 -1 -1 1 1 0 1 1 -1 -1 5 5 5 -1 -0 -0
1 1 1 -0 0 3 4 4 -2 -2 -1 -0 0 1 0 -3 -2 -1 -2 0 2 -1 -2 2 -0 -0 1 1 -1 -1 -0 -1 -1 -0 1 1 1 1 0 -0 1 1 -3 1 -3 -3 0 -2 -1 0 -1 -1 -1 -1
-0 -1 1 2 1 0 3 3 -0 -3 -1 -1 -1 2 0 -1 -2 1 1 1 0 3 -0 -0 -1 1 2 2 4 1 -1 -1 -1 -1 -2 0 2 -0 0 -4 1 1 -1 1 2 -1 -3 -0 -1 -1 1 -1 -1 -1
2 1 -0 -0 2 3 1 6 1 -1 1 -1 -2 1 2 -1 -1 -0 4 3 1 -0 2 -1 -0 1 1 2 3 3 2 -0 -1 -2 -1 -1 2 1 -1 3 3 0 2 -3 -4 -5 -0 -3 -3 0 0 1 1 -0
-1 -0 -2 1 -0 -5 10 -2 -3 2 -2 -1 -1 1 2 2 -1 -0 1 0 2 3 2 -1 2 -0 -2 -0 -0 2 2 2 -0 -0 0 -2 -0 2 0 2 0 -6 -7 -4 -8 -4 -1 -2 -1 -2 -1 1 2 0
-0 -3 1 6 -1 7 14 10 -0 2 4 -2 -0 1 2 2 -1 -3 -1 0 -1 -1 1 0 1 2 1 -0 0 1 1 2 -1 -1 -2 -0 -1 1 1 -0 -9 -2 -3 1 -2 -1 -1 -2 -2 -1 -3 -1 0 0
2 4 3 5 -2 -1 5 -2 -2 1 -1 1 -0 3 2 -1 1 -1 -1 3 1 -1 -0 -3 -0 0 -0 0 1 1 2 2 -0 -0 0 0 -0 2 1 0 -5 0 2 0 1 0 -3 -2 -3 -1 -1 -1 -1 -1
1 -2 2 3 3 4 15 -5 6 6 5 1 2 2 0 -2 0 -0 -1 3 3 -2 0 1 -4 0 1 1 1 1 1 2 2 0 1 1 1 2 1 -11 -3 -1 1 -0 -0 -0 0 0 -0 -0 -2 -1 -2 -2
-1 2 9 11 9 7 5 -4 9 3 -1 3 5 2 -2 0 1 -1 0 2 5 -3 1 1 1 0 -1 0 0 0 0 2 2 1 -0 2 -0 -4 -13 -2 -1 -1 -7 1 1 0 -1 -2 1 -0 -1 -1 -3 -0
-3 -1 1 15 13 -3 11 4 6 3 4 5 4 0 -3 -3 0 5 5 -0 -0 -1 1 1 1 1 -1 0 1 0 -0 -0 1 -1 -0 3 -6 -11 -2 -3 -1 0 1 1 0 -1 0 -3 -0 2 -1 2 0 -1
7 4 5 0 20 -6 14 12 3 1 6 4 3 -1 7 -2 -3 1 1 0 1 1 0 -3 -0 0 -1 0 -1 -0 -0 0 2 2 4 -1 -4 -4 -1 -1 -0 1 -1 -1 -1 1 0 -1 -1 0 0 -0 -0 -1
-0 5 6 6 14 8 12 15 -4 2 4 -1 -6 2 3 1 1 2 -1 1 3 -5 0 0 -1 -1 -0 0 -0 0 0 1 -1 -1 2 -1 -9 -2 -1 -0 0 -0 -1 -2 0 1 -0 -0 1 -1 -0 1 0 -0
6 1 1 4 7 -6 11 11 -1 5 7 6 2 -3 2 1 2 4 -1 1 2 -1 -2 -1 1 -0 1 0 -0 0 3 -2 -1 2 -4 -8 -3 -1 -2 -1 -1 -0 0 -2 -0 0 -0 1 -0 -0 -0 1 -1 -1
10 0 -5 -3 12 3 15 13 -7 15 11 -5 -1 2 -2 2 -2 -4 -2 -2 0 -1 -2 -2 -1 -2 -1 2 -1 3 -1 1 2 2 -8 -3 -3 0 -1 -0 -0 -0 1 0 1 1 1 -1 -1 -1 -1 -1 -1 -0
8 9 11 2 1 -1 8 0 -0 18 2 -5 3 -4 0 -9 -1 0 1 -2 -0 -0 -4 -0 0 -0 1 2 0 0 4 -1 -3 -7 -3 -1 0 -1 -1 -1 1 1 -0 0 1 1 -0 -1 -1 -1 -2 -3 -1 -1
13 25 -6 0 3 -4 15 19 6 12 -1 -2 4 2 -4 2 -2 1 -1 2 1 1 3 1 -1 2 -1 -1 3 -4 3 -6 -5 -2 -3 -1 -2 1 -2 0 3 -2 -2 0 -0 1 -0 -0 -0 -1 -2 -1 -1 -1
20 -13 -0 -0 -1 16 3 19 10 -5 -1 3 -6 -3 5 6 -1 6 2 -5 1 -1 -1 -0 3 -11 -1 2 1 -1 -4 -2 -1 -4 -4 -1 -1 -0 2 -1 1 -0 -2 -2 0 -0 -0 -1 -1 -1 -2 1 -0 0
-8 2 8 20 3 11 15 11 0 7 0 -3 1 -3 1 5 4 1 -1 -2 -3 -3 2 -4 -2 2 -1 -0 -1 -3 -3 -6 -1 0 2 3 1 2 3 2 1 -1 -3 -1 1 1 -0 -0 -1 -2 -2 0 -1 0
9 17 5 3 1 -6 -4 1 -1 0 -7 3 2 0 0 -1 -3 -1 -1 2 9 5 -1 2 3 -1 -1 -0 0 1 3 5 1 -2 -1 2 3 3 2 0 -2 -2 -2 -1 -1 -1 -1 0 -0 -1 0 -0 -1 0
6 3 2 3 7 -3 -1 2 -0 3 0 2 -1 -1 0 -0 -0 1 7 9 5 -3 2 1 0 4 6 6 7 5 3 2 2 -0 1 2 1 1 0 -0 2 3 1 -0 -0 -1 -1 -2 -1 -0 1 -0 -1 -1
2 4 8 12 9 3 2 -3 1 0 -0 -0 -0 1 1 0 1 2 2 4 0 1 1 7 3 1 4 6 4 2 2 1 1 4 3 2 1 2 3 3 1 2 1 1 0 -0 1 0 -1 1 -0 1 1 -1
-5 9 5 10 -1 -2 4 2 1 0 1 1 -1 0 1 0 1 1 2 -1 3 4 3 4 1 0 -1 -2 -2 0 1 2 4 4 2 1 1 2 2 3 -1 0 0 -1 -2 -2 -1 0 0 1 1 1 -0 0
6 7 2 -2 -0 5 1 0 -0 -1 1 -0 -0 0 0 0 -0 1 -0 3 5 3 4 3 4 9 4 4 5 3 1 1 3 3 3 1 3 2 0 1 -1 -1 -0 0 0 1 -0 2 1 -0 0 -0 0 1
8 -1 -1 1 6 1 1 0 0 -0 0 0 0 0 1 -0 0 -1 1 2 6 3 -2 -3 -4 -3 1 1 -4 -3 -3 -2 1 4 1 1 0 -1 1 1 0 -0 -0 1 1 1 0 2 2 -0 -2 -0 -1 1
1 1 3 1 1 -2 0 1 0 0 -0 -0 1 0 1 -1 0 -0 1 1 0 -2 -2 -1 1 1 2 2 2 3 3 1 -2 -2 1 0 0 1 0 0 -1 0 1 1 -0 -0 1 2 1 1 -3 1 1 0
0 -0 1 -0 1 -2 -1 -0 -0 -1 -0 0 0 0 -0 -0 -2 2 2 1 1 -0 -1 -0 -1 -3 1 3 1 -4 -5 -3 -1 0 2 3 2 1 1 -1 -1 1 2 1 -0 0 1 1 1 2 -0 -0 2 2
-1 0 0 1 0 -0 -0 0 0 -1 -0 0 0 -0 0 0 2 4 5 -1 -2 -1 3 2 2 2 2 0 2 1 1 -0 -1 2 3 2 2 2 2 1 -0 3 3 3 2 1 1 2 2 1 0 0 1 1
2 -1 -1 0 -0 1 -1 -0 -0 1 1 1 0 -1 0 2 3 0 2 2 2 3 2 1 1 1 -1 -0 2 1 -1 -1 4 2 3 3 1 4 4 4 5 5 4 2 3 3 2 1 1 4 3 -0 0 1
-2 -1 1 0 0 -2 1 2 2 2 2 3 -1 1 3 1 2 2 3 2 2 1 -1 -1 -1 1 4 5 3 -0 -1 -2 -10 -11 -4 -4 -7 -0 1 3 1 0 0 -0 3 5 5 6 5 1 2 -0 1 0
-1 1 0 -0 -1 1 3 3 3 3 1 -1 -5 -5 -3 2 6 7 4 1 -5 -5 2 3 3 -2 -5 -8 -6 3 1 0 1 -0 -3 -3 -4 -2 -2 -3 -0 -1 1 2 -0 -2 2 2 6 3 0 0 -0 -1
-0 -1 -0 -0 1 1 2 2 2 -1 -3 -1 3 -6 -2 -1 4 1 -1 1 2 2 0 -3 -2 -3 -5 -4 -5 -9 -6 1 2 4 5 3 3 0 -1 2 4 3 -0 -1 0 3 2 2 2 3 3 2 1 -0
-1 -2 0 -1 1 2 2 1 1 -0 1 -0 2 -1 -1 -1 1 3 5 2 -0 -3 2 -0 -6 -7 -0 2 4 5 2 -1 -0 1 -2 -4 -4 0 -2 9 0 -1 -4 -4 -1 1 2 2 2 1 0 1 2 1
-1 -0 1 -0 -2 -1 0 1 0 -0 0 -0 0 -1 0 0 -2 -0 -0 -2 -1 -2 -5 -3 -1 1 -1 -0 1 3 4 2 1 2 0 0 6 -1 12 6 -3 -2 -2 -1 1 1 1 2 2 1 1 2 1 1
Height
1584 1585 1586 1586 1585 1583 1582 1581 1580 1578 1576 1573 1570 1566 1562 1559 1555 1553 1551 1546 1545 1541 1533 1531 1531 1530 1530 1531 1529 1527 1528 1526 1526 1523 1525 1527 1527 1526 1527 1515 1511 1509 1504 1497 1515 1504 1484 1487 1492 1487 1485 1484 1484 1484
1579 1580 1581 1581 1580 1579 1578 1577 1576 1575 1573 1570 1568 1565 1561 1557 1554 1551 1548 1545 1543 1540 1532 1528 1526 1526 1526 1526 1527 1526 1526 1525 1525 1526 1532 1534 1526 1534 1526 1502 1513 1507 1500 1496 1500 1477 1482 1483 1481 1482 1481 1483 1483 1482
1574 1575 1575 1575 1575 1575 1573 1572 1572 1571 1569 1567 1565 1562 1559 1555 1552 1549 1546 1544 1541 1535 1526 1522 1519 1519 1519 1521 1524 1526 1524 1523 1524 1525 1527 1529 1528 1524 1514 1511 1507 1502 1502 1500 1498 1479 1478 1477 1478 1477 1477 1478 1480 1480
1567 1568 1570 1570 1569 1569 1569 1567 1567 1566 1565 1563 1561 1559 1556 1553 1550 1547 1544 1542 1541 1538 1532 1520 1518 1517 1517 1518 1520 1521 1522 1522 1523 1525 1525 1525 1522 1518 1510 1509 1507 1496 1500 1493 1490 1477 1475 1472 1472 1473 1473 1473 1474 1476
1559 1561 1562 1562 1563 1563 1562 1562 1562 1561 1560 1558 1557 1555 1553 1549 1547 1544 1539 1537 1538 1541 1532 1519 1514 1513 1513 1515 1516 1518 1520 1521 1521 1522 1522 1519 1516 1516 1513 1512 1495 1485 1479 1478 1470 1467 1469 1470 1471 1470 1471 1470 1469 1470
1550 1552 1553 1554 1556 1556 1555 1554 1555 1555 1554 1553 1552 1551 1549 1546 1543 1541 1536 1535 1534 1535 1533 1522 1514 1510 1510 1511 1513 1515 1516 1518 1519 1519 1516 1512 1510 1511 1507 1496 1467 1465 1465 1466 1465 1466 1467 1468 1468 1468 1467 1467 1466 1466
1542 1544 1545 1546 1547 1548 1548 1549 1550 1550 1549 1548 1547 1546 1543 1542 1540 1540 1539 1534 1531 1532 1532 1523 1514 1512 1511 1511 1512 1513 1514 1514 1516 1515 1511 1509 1507 1509 1502 1485 1457 1457 1460 1463 1463 1464 1464 1464 1464 1464 1464 1465 1464 1463
1532 1534 1535 1536 1537 1540 1540 1542 1544 1544 1543 1543 1542 1540 1538 1537 1533 1531 1528 1528 1529 1530 1529 1526 1514 1511 1510 1510 1511 1510 1511 1511 1509 1508 1506 1504 1504 1502 1488 1454 1455 1457 1457 1458 1458 1458 1460 1460 1461 1461 1461 1461 1461 1460
1523 1525 1526 1526 1528 1532 1533 1536 1537 1537 1538 1536 1536 1535 1534 1532 1528 1525 1524 1524 1525 1531 1524 1522 1514 1504 1508 1508 1509 1510 1509 1508 1507 1503 1501 1501 1491 1483 1452 1450 1450 1451 1453 1453 1454 1454 1455 1454 1455 1457 1457 1457 1457 1457
1512 1514 1515 1517 1519 1523 1525 1529 1531 1533 1531 1532 1533 1533 1528 1527 1525 1525 1520 1521 1522 1523 1520 1512 1506 1505 1506 1507 1508 1510 1508 1505 1500 1498 1498 1492 1470 1449 1446 1446 1447 1447 1448 1451 1451 1451 1450 1450 1451 1451 1452 1452 1451 1451
1498 1499 1502 1506 1509 1514 1517 1521 1523 1525 1527 1528 1527 1524 1521 1521 1523 1521 1519 1519 1518 1515 1507 1502 1501 1500 1502 1503 1504 1506 1504 1505 1499 1494 1495 1483 1464 1443 1440 1439 1438 1441 1445 1446 1445 1445 1445 1446 1446 1447 1447 1447 1447 1446
1488 1489 1489 1493 1499 1507 1511 1512 1515 1519 1519 1519 1521 1519 1519 1518 1519 1521 1514 1514 1511 1499 1494 1492 1494 1496 1497 1499 1500 1503 1502 1504 1494 1498 1496 1476 1444 1438 1439 1439 1439 1440 1442 1443 1443 1442 1442 1442 1443 1443 1442 1442 1442 1441
1479 1480 1482 1487 1494 1501 1503 1505 1510 1511 1513 1515 1516 1516 1515 1516 1517 1510 1498 1494 1491 1482 1483 1486 1491 1493 1494 1496 1498 1499 1498 1493 1497 1495 1474 1448 1435 1434 1436 1437 1437 1438 1440 1441 1442 1441 1441 1440 1440 1439 1437 1436 1435 1434
1470 1474 1478 1483 1489 1494 1497 1501 1503 1503 1505 1510 1509 1510 1505 1500 1492 1476 1471 1469 1471 1473 1476 1481 1486 1490 1490 1492 1492 1491 1490 1492 1487 1484 1453 1433 1429 1430 1432 1434 1435 1437 1438 1438 1438 1437 1437 1437 1437 1435 1433 1431 1429 1428
1464 1466 1471 1477 1482 1488 1492 1493 1495 1495 1498 1501 1500 1493 1483 1471 1468 1467 1468 1470 1470 1471 1475 1480 1483 1485 1486 1485 1486 1487 1487 1477 1464 1443 1431 1427 1428 1430 1431 1433 1434 1435 1436 1436 1436 1435 1434 1434 1433 1431 1429 1427 1425 1423
1456 1460 1463 1469 1475 1480 1484 1483 1485 1489 1492 1492 1485 1478 1470 1467 1460 1461 1463 1465 1468 1469 1474 1475 1479 1481 1477 1476 1480 1470 1463 1445 1429 1430 1428 1428 1427 1428 1429 1430 1431 1431 1432 1433 1433 1432 1431 1430 1429 1427 1425 1423 1420 1418
1449 1450 1455 1462 1468 1471 1472 1475 1479 1482 1481 1477 1466 1456 1451 1450 1449 1452 1455 1459 1463 1468 1469 1471 1470 1462 1468 1467 1464 1454 1441 1428 1427 1427 1426 1426 1426 1425 1425 1425 1427 1427 1429 1430 1429 1428 1427 1426 1424 1422 1420 1419 1415 1413
1440 1444 1450 1453 1456 1462 1465 1469 1472 1470 1466 1457 1452 1446 1446 1446 1447 1448 1449 1452 1455 1457 1458 1457 1456 1458 1451 1444 1438 1433 1430 1428 1426 1425 1424 1423 1422 1422 1423 1423 1424 1424 1425 1425 1425 1424 1423 1421 1418 1416 1414 1412 1410 1408
1433 1436 1439 1444 1446 1452 1459 1462 1463 1457 1448 1445 1443 1442 1442 1442 1442 1444 1445 1446 1446 1448 1450 1451 1448 1442 1437 1435 1433 1430 1429 1427 1425 1423 1421 1418 1417 1417 1419 1419 1419 1419 1420 1420 1420 1420 1418 1415 1412 1410 1407 1406 1404 1403
1428 1432 1436 1439 1445 1449 1452 1454 1454 1448 1442 1439 1439 1439 1439 1439 1439 1439 1440 1440 1443 1448 1448 1446 1441 1439 1438 1436 1433 1431 1428 1425 1422 1420 1418 1416 1415 1415 1414 1415 1415 1415 1416 1416 1415 1414 1411 1408 1406 1404 1402 1400 1399 1398
1427 1431 1435 1440 1442 1445 1443 1442 1444 1442 1439 1438 1438 1438 1437 1437 1437 1437 1438 1440 1444 1443 1440 1441 1443 1442 1439 1436 1431 1427 1424 1421 1419 1418 1417 1415 1414 1413 1412 1411 1413 1413 1413 1411 1409 1408 1405 1402 1401 1399 1397 1396 1395 1394
1424 1429 1432 1435 1439 1440 1438 1437 1437 1437 1437 1435 1436 1436 1435 1435 1436 1437 1438 1439 1444 1450 1451 1447 1441 1437 1434 1431 1428 1426 1423 1420 1418 1415 1414 1414 1413 1412 1412 1411 1410 1410 1409 1406 1404 1402 1400 1398 1396 1395 1393 1392 1392 1391
1424 1427 1430 1433 1435 1433 1433 1433 1434 1435 1435 1434 1435 1435 1435 1436 1436 1438 1440 1443 1449 1452 1450 1447 1443 1438 1435 1432 1430 1426 1423 1421 1419 1416 1414 1413 1412 1411 1410 1409 1407 1406 1404 1402 1400 1398 1396 1394 1392 1391 1390 1389 1389 1388
1421 1425 1425 1425 1426 1429 1431 1431 1432 1433 1433 1434 1433 1431 1434 1436 1437 1437 1440 1450 1456 1452 1448 1445 1442 1439 1436 1432 1429 1426 1424 1423 1421 1419 1415 1413 1411 1410 1408 1406 1404 1402 1400 1398 1396 1395 1394 1392 1390 1388 1388 1387 1387 1386
1421 1423 1424 1422 1424 1427 1429 1431 1432 1433 1432 1432 1432 1431 1433 1435 1437 1439 1445 1455 1454 1452 1449 1446 1444 1442 1439 1435 1433 1429 1426 1422 1418 1416 1414 1411 1410 1408 1407 1404 1401 1399 1398 1396 1394 1393 1392 1390 1388 1386 1386 1386 1385 1384
1415 1421 1423 1420 1424 1425 1427 1429 1430 1430 1430 1431 1432 1434 1434 1435 1437 1454 1461 1460 1457 1455 1452 1448 1445 1442 1439 1437 1433 1428 1425 1423 1420 1416 1413 1411 1408 1406 1405 1403 1401 1399 1397 1395 1393 1392 1390 1389 1387 1386 1385 1385 1384 1383
1418 1422 1422 1422 1423 1424 1426 1428 1428 1429 1430 1431 1433 1434 1434 1434 1454 1465 1465 1461 1457 1456 1454 1451 1447 1444 1440 1437 1434 1431 1427 1423 1420 1417 1413 1411 1409 1408 1406 1403 1400 1399 1397 1394 1392 1391 1389 1388 1387 1386 1384 1384 1383 1382
1422 1423 1424 1425 1423 1424 1425 1427 1429 1431 1433 1434 1434 1441 1445 1456 1465 1466 1464 1461 1459 1456 1454 1452 1448 1445 1442 1440 1436 1430 1426 1423 1420 1417 1413 1412 1410 1408 1406 1403 1400 1397 1395 1392 1390 1389 1387 1386 1385 1384 1383 1382 1382 1381
1425 1424 1424 1425 1426 1428 1433 1434 1435 1437 1438 1436 1438 1451 1459 1463 1465 1465 1464 1462 1460 1457 1453 1450 1447 1445 1442 1439 1436 1431 1427 1422 1418 1414 1412 1410 1408 1406 1403 1400 1397 1395 1393 1391 1389 1387 1385 1384 1382 1381 1379 1379 1380 1379
1428 1426 1426 1427 1430 1437 1441 1440 1440 1441 1439 1440 1445 1456 1462 1465 1467 1466 1464 1462 1460 1458 1456 1452 1447 1443 1439 1435 1432 1430 1427 1423 1421 1418 1413 1410 1406 1404 1401 1398 1396 1393 1391 1389 1387 1385 1383 1381 1379 1378 1378 1378 1378 1378
1430 1429 1430 1432 1438 1443 1443 1442 1442 1443 1444 1446 1449 1453 1459 1464 1466 1465 1465 1463 1460 1458 1454 1450 1448 1444 1440 1436 1431 1426 1422 1421 1418 1416 1413 1410 1406 1402 1399 1397 1394 1391 1389 1387 1385 1383 1380 1378 1377 1376 1376 1376 1376 1375
1434 1435 1435 1438 1442 1444 1443 1443 1443 1446 1449 1453 1457 1459 1462 1464 1465 1466 1466 1463 1459 1456 1454 1450 1445 1441 1440 1436 1432 1427 1423 1419 1414 1411 1408 1405 1402 1400 1397 1395 1391 1387 1384 1382 1380 1378 1377 1375 1374 1373 1372 1372 1372 1372
1441 1441 1441 1442 1443 1444 1445 1445 1445 1449 1451 1454 1458 1460 1461 1463 1463 1464 1463 1461 1459 1456 1452 1447 1443 1438 1434 1430 1426 1422 1418 1415 1411 1408 1404 1403 1402 1398 1396 1390 1385 1381 1377 1375 1373 1372 1371 1370 1370 1370 1369 1370 1370 1370